Simultaneous Nadir Overpasses (SNOs) Predictions

Prediction of SNOs near equator between NOAA-19 and NPP Satellite Orbit:

Table of predicted SNOs near equator for the next 14.0 days since TLE Epoch: 2/24/2013
Index Date (NOAA-19) Time (NOAA-19) NOAA-19 Lat,Lon Date (NPP) Time (NPP) NPP Lat,Lon Distance(km) Time Diff (sec)
1 03/07/2013 21:34:47 -29.95, 55.20 03/07/2013 21:26:25 -29.74, 54.25 94.31 502
2 03/07/2013 22:25:50 29.96,-137.56 03/07/2013 22:17:14 29.78,-138.46 88.65 516
3 03/07/2013 23:16:52 -29.97, 29.68 03/07/2013 23:07:56 -29.80, 28.86 80.69 536
4 03/08/2013 00:07:55 29.98,-163.09 03/07/2013 23:58:45 29.84,-163.85 75.07 550
5 03/08/2013 00:58:56 -29.98, 4.15 03/08/2013 00:49:27 -29.87, 3.47 67.14 570
6 03/08/2013 01:49:59 30.00, 171.39 03/08/2013 01:40:14 29.85, 170.78 61.52 585
7 03/08/2013 02:41:0
